Torna al catalogo

STARLINK-11557

AttivoComunicazioniVLEO
NORAD 62837·PAYLOAD·🇺🇸 United States

Lanciato Jan 27, 2025 da Cape Canaveral Space Force Station

Loading…

Prossimi Passaggi (prossime 24 ore)

TLE

AggiornatoSource: CelesTrak SupGP

Epoca: Sep 14, 2026, 20:53 UTC

1 62837C 25019J   26257.87062500  .00026630  00000+0  20700-3 0  2578
2 62837  43.0004 245.5129 0001580 266.4080 165.3428 15.70806818    11

Traccia STARLINK-11557 in tempo reale con AllMySat

Download on the App Store